Regional Weather Roundup
Issued by NWS Midland/Odessa, TX

Home | Current Version | Previous Version | Text Only | Print | Product List | Glossary On
Versions: 1 2 3 4 5 6 7 8 9 10 11 12 13 14 15 16 17 18 19 20 21 22 23 24 25 26 27 28 29 30 31 32 33 34 35 36 37 38 39 40 41 42 43 44 45 46 47 48 49 50
094
ASUS44 KMAF 200510
RWRMAF
MIDLAND AREA WEATHER ROUNDUP
NATIONAL WEATHER SERVICE MIDLAND TX
1200 AM CDT WED SEP 20 2017

...IN SOUTHWEST TEXAS AND SOUTHEAST NEW MEXICO...

CITY           SKY/WX    TMP DP  RH WIND       PRES   REMARKS
ALPINE         CLEAR     76  52  42 SW7       30.08R
ANDREWS        FAIR      79  56  45 S16G24    29.89S
ARTESIA        CLEAR     75  46  35 SW12      29.87S
BIG SPRING     PTCLDY    80  64  56 S21G29    29.90R
CARLSBAD       PTCLDY    74  50  42 SW9       29.85S
DRYDEN           N/A     79  63  57 SE5       29.88S
FORT STOCKTON  PTCLDY    79  57  46 SE15G23   29.90R
GUAD PASS      CLEAR     73  46  38 W12       30.05R
HOBBS          CLEAR     70  46  43 SW7       29.89R
MARFA          NOT AVBL
MIDLAND AIRPK  CLEAR     82  60  46 S14G21    29.89R
MIDLAND INTL   PTCLDY    82  60  47 S18G26    29.88R
ODESSA         CLEAR     81  59  47 S18       29.90R
PECOS          PTCLDY    81  52  36 SE6       29.85R
PRESIDIO       FAIR      81  61  50 CALM      29.92S
SEMINOLE       CLEAR     78  51  38 S13       29.89R
SNYDER         CLEAR     77  64  63 S14       29.88R
WINK           PTCLDY    82  54  37 SE13      29.85R
$$
...OTHER STATIONS IN TEXAS...

CITY           SKY/WX    TMP DP  RH WIND       PRES   REMARKS
ABILENE        CLEAR     79  62  56 S20G28    29.84F
AMARILLO       CLEAR     71  49  45 S10       29.81R
AUSTIN         MOCLDY    80  73  79 S12       29.87R
BROWNSVILLE    CLEAR     80  78  94 SE8       29.89F
CORPUS CHRISTI MOCLDY    81  78  91 SE18      29.85S
DALLAS FTW     CLOUDY    80  71  74 E6        29.82F
DEL RIO        CLEAR     76  67  73 SE5       29.86R
EL PASO        PTCLDY    85  45  24 NW9       29.93S
HOUSTON INT    CLOUDY    80  76  87 S5        29.90S
LUBBOCK        PTCLDY    77  49  37 S15       29.83R
SAN ANGELO     CLEAR     78  65  63 S7        29.88R
SAN ANTONIO    CLOUDY    80  72  76 SE12      29.91R
WACO           CLOUDY    84  72  67 S14       29.86S
WICHITA FALLS  NOT AVBL
$$
...OTHER LOCATIONS IN NEW MEXICO...

CITY           SKY/WX    TMP DP  RH WIND       PRES   REMARKS
ALAMOGORDO     CLOUDY    72  39  30 SE8       29.95R
ALBUQUERQUE    CLOUDY    71  28  20 SW8       29.99R
CANNON AFB     CLEAR     66  45  46 SW6       29.88R
CLOVIS         CLOUDY    61  46  57 SW9       29.87R
HOLLOMAN AFB   PTCLDY    74  40  30 SW6       29.94R
ROSWELL        CLEAR     75  42  30 SW10      29.85R
RUIDOSO        CLEAR     66  36  32 W6        30.11R
SANTA FE       CLOUDY    68  25  19 MISG      30.02R
TRUTH OR CONSE CLEAR     74  41  30 SW3       29.97R
TUCUMCARI      CLEAR     69  37  30 SW10      29.80R
$$




USA.gov is the U.S. government's official web portal to all federal, state and local government web resources and services.